Temp_Advection
nan nan nan nan nan nan nan nan nan nan nan nan nan nan nan nan nan nan nan nan nan nan nan nan nan nan nan nan nan nan nan nan nan nan nan nan nan nan nan nan nan nan nan nan nan nan nan nan nan nan nan nan nan nan nan nan nan nan nan nan nan nan nan nan nan nan nan nan nan
nan 1 1 1 1 1 1 0 0 0 -0 -0 -0 -0 0 0 0 0 0 0 0 0 0 0 0 0 0 0 0 0 0 0 0 0 0 0 0 0 0 0 0 0 0 -0 0 0 0 0 -0 -0 -0 -0 0 1 0 0 -0 0 1 1 2 1 0 -0 -0 -0 -0 -0 nan
nan 1 1 1 0 0 0 -0 -0 -0 -0 -0 0 0 0 0 0 0 0 0 0 0 0 0 0 0 0 0 0 0 0 0 0 0 0 0 0 0 0 0 -0 -0 0 0 0 0 0 -0 -0 0 -0 -0 0 0 1 0 0 0 0 1 1 1 1 1 0 -0 -0 -0 nan
nan 1 0 0 0 -0 -0 -0 -0 -0 -0 0 0 0 0 0 0 0 0 0 0 0 0 0 0 0 0 0 0 0 0 0 0 0 0 0 0 0 -0 -0 0 0 0 -0 0 0 0 0 0 0 0 0 0 0 1 1 1 0 -0 0 1 1 1 1 1 -0 -0 -0 nan
nan 0 0 0 -0 -0 0 0 0 0 0 0 0 0 0 0 0 0 0 0 0 0 0 0 0 0 0 0 0 0 0 0 0 0 0 0 0 0 0 -0 -0 0 0 -0 -0 -0 0 0 0 0 0 -0 -0 -0 1 1 1 0 -0 -0 1 2 2 1 1 0 0 0 nan
nan 0 0 0 0 0 0 0 0 0 0 0 0 0 0 0 0 0 -0 0 0 0 0 0 0 0 0 0 0 0 0 0 0 0 0 0 0 0 -0 -0 -0 0 0 -0 -0 -0 -0 0 0 0 0 0 0 0 1 1 1 0 -0 -0 1 3 2 1 0 0 1 1 nan
nan 1 0 0 0 0 0 0 0 0 0 0 0 0 0 -0 -0 0 0 0 0 0 0 0 0 0 0 0 0 0 0 0 0 0 -0 0 -0 0 0 0 0 0 -0 -0 -0 0 0 0 0 0 0 -0 -0 -0 -0 0 1 0 0 -0 1 3 2 1 -0 -0 0 1 nan
nan 1 1 0 0 0 0 0 0 0 0 0 0 -0 0 0 0 0 0 0 0 0 0 0 0 0 0 0 0 0 0 0 0 -0 -0 -0 -0 -0 -0 -0 0 0 0 0 0 -0 0 0 0 0 0 -0 -0 -0 -0 -0 0 0 0 1 2 2 1 1 0 0 0 1 nan
nan 1 1 0 0 0 0 0 0 0 0 0 0 0 0 0 0 0 0 0 0 0 0 0 0 0 0 0 0 0 -0 -0 -0 -0 -0 -0 -0 -0 -0 -0 -0 -0 0 0 0 0 -0 0 0 0 0 0 -0 -0 -0 -0 -0 0 1 1 1 1 1 1 1 0 0 0 nan
nan 0 0 0 0 0 0 0 0 0 0 0 0 0 0 0 0 0 0 0 0 0 0 0 0 0 0 -0 -0 -0 -0 -0 -0 -0 -0 -0 -0 -0 -0 -0 -0 -0 0 0 0 -0 0 -0 -0 0 0 0 0 -0 -0 -0 -0 0 1 1 1 1 0 1 1 0 0 0 nan
nan 0 0 0 0 0 0 0 0 0 0 0 0 0 0 0 0 0 0 0 0 0 0 0 0 0 0 0 0 0 -0 -0 -0 -0 -0 -0 -0 -0 0 0 0 0 -0 -0 -0 -0 -0 -0 -0 -0 -0 -0 -0 -0 -0 -0 -0 0 1 1 1 1 1 1 0 0 0 0 nan
nan 0 0 0 0 0 0 0 0 0 0 0 0 0 0 0 0 0 0 0 0 0 0 0 0 0 0 -0 -0 -0 -0 -0 -0 -0 -0 -0 -0 -0 0 0 0 -0 -0 -0 -0 -0 -0 -0 -0 -0 -0 -0 -0 -0 -0 -0 -0 -0 -0 0 0 1 1 0 0 0 0 0 nan
nan 0 0 0 0 0 0 0 0 0 0 0 0 0 0 0 0 0 0 0 0 0 0 0 0 0 -0 -0 -0 -0 -0 -0 -0 -0 -0 -0 -0 0 0 -0 -0 0 -0 -0 -0 -0 -0 -0 -0 -0 -0 -0 -0 -0 -0 -0 -0 -0 -0 -0 -0 -0 -0 0 0 -0 -0 -0 nan
nan 0 0 0 0 0 0 0 0 0 0 -0 -0 0 0 0 0 0 0 0 0 0 0 0 0 -0 -0 -0 -0 0 0 0 -0 -0 -0 -0 0 0 0 -0 -0 -0 0 0 -0 -0 -0 -0 -0 0 -0 -0 -0 -0 -0 -0 -0 -0 -0 -0 -0 -0 -0 -0 -0 -0 -0 -0 nan
nan 0 0 0 0 -0 -0 -0 -0 -0 -0 -0 0 0 0 0 0 0 0 0 0 0 0 -0 -0 -0 -0 0 0 0 0 0 -0 -0 -0 -0 0 0 0 -0 -0 -0 0 0 0 -0 -0 0 0 0 0 0 -0 -0 -0 -0 -0 -0 -0 -0 -0 -0 -0 -0 -0 -0 0 -0 nan
nan -0 -0 -0 -0 -0 -0 -0 0 0 0 0 0 0 0 0 0 0 0 0 0 0 -0 -0 -0 0 0 0 0 0 0 0 0 0 0 -0 -0 -0 -0 0 -0 0 0 0 0 0 0 0 0 0 0 0 0 0 0 0 0 0 0 0 0 0 0 0 0 0 0 0 nan
nan -0 -0 -0 -0 -0 -0 0 0 0 0 0 0 0 0 0 0 0 0 0 0 -0 -0 -0 0 0 0 0 0 0 0 0 0 -0 -0 -0 -0 0 0 0 0 0 0 0 0 0 -0 -0 -0 0 0 0 0 0 0 0 0 0 0 0 0 0 0 0 0 0 0 0 nan
nan -0 -0 -0 -0 0 0 0 0 0 0 0 0 0 0 0 0 0 0 0 -0 -0 -0 0 0 0 0 0 0 0 0 0 -0 -0 -0 0 0 0 0 0 0 0 0 0 0 0 0 0 -0 -0 -0 0 0 0 0 0 0 0 0 0 0 0 0 0 0 0 0 0 nan
nan 0 0 0 0 0 0 0 0 0 0 0 0 0 0 0 0 0 0 -0 -0 0 0 0 0 0 0 0 0 0 -0 -0 -0 0 0 0 0 0 0 0 0 0 0 0 0 0 0 0 0 -0 0 0 0 0 0 0 0 0 0 0 0 0 0 0 0 0 0 0 nan
nan 0 0 0 0 0 0 0 0 0 0 0 0 0 0 0 0 0 0 0 0 0 0 0 0 0 0 0 0 -0 -0 0 0 1 1 0 0 0 0 0 0 0 0 0 0 0 0 0 0 0 0 0 0 0 0 -0 -0 0 0 0 0 0 0 0 0 0 0 0 nan
nan 0 0 0 0 0 0 0 0 0 0 0 0 0 0 0 0 0 0 0 0 0 0 0 0 0 0 0 -0 -0 -0 0 0 0 0 0 1 1 1 1 1 1 0 0 0 0 -0 -0 -0 -0 0 0 0 0 0 0 -0 -0 0 0 0 0 0 0 0 0 0 0 nan
nan 0 0 0 0 0 0 0 0 0 0 0 0 0 0 0 0 0 0 0 0 0 0 0 0 0 0 -0 -0 -0 -0 0 0 0 0 0 1 1 1 1 1 0 0 0 0 0 0 -0 -0 -0 -0 -0 -0 0 0 0 0 -0 -0 -0 0 0 0 0 0 0 0 0 nan
nan 0 0 0 0 0 0 0 0 0 0 0 0 0 0 0 0 0 0 0 0 0 0 0 0 0 -0 -0 -0 -0 0 0 0 0 0 0 0 1 1 1 1 1 1 1 1 0 0 0 0 -0 -0 -1 -0 -0 0 0 0 0 -0 -0 -0 0 0 0 0 0 0 0 nan
nan 0 0 0 0 0 0 0 0 0 0 0 0 0 0 0 0 0 0 0 0 0 0 0 0 -0 -0 -0 -0 0 0 0 0 0 0 0 0 1 1 1 1 1 1 1 1 0 -0 -0 -0 -0 -0 -1 -0 -0 -0 0 0 0 0 -0 -0 -0 0 0 0 0 0 0 nan
nan 0 0 0 0 0 0 0 0 0 0 0 0 0 0 0 0 0 0 0 0 0 0 0 -0 -0 -0 -0 0 0 0 0 0 0 0 0 0 0 1 1 1 1 1 1 1 0 -0 -0 -1 -1 -0 -1 -0 -0 0 0 0 0 -0 -0 -0 0 0 0 0 0 0 0 nan
nan -0 -0 -0 0 0 0 0 0 0 0 0 0 0 0 0 0 0 0 0 0 0 0 0 0 0 0 0 0 0 0 0 0 0 0 0 0 1 1 1 1 1 1 1 0 0 -0 -0 -1 -1 -1 -0 -0 0 0 0 0 -0 -0 -0 -0 0 0 0 0 0 0 0 nan
nan -0 -0 -0 -0 -0 -0 -0 -0 0 0 0 0 0 0 0 0 0 0 0 0 0 0 0 0 0 0 0 0 0 0 0 0 0 0 0 0 0 0 1 1 1 1 1 0 0 -0 -1 -1 -1 -0 0 0 0 0 0 -0 -0 -0 -0 -0 0 0 0 0 0 0 0 nan
nan -0 -0 -0 -0 -0 -0 -0 -0 -0 -0 -0 -0 -0 -0 0 0 0 0 0 0 0 0 0 0 0 0 0 0 0 0 0 0 0 0 0 0 0 0 0 1 1 1 1 0 0 -0 -1 -1 -1 -0 0 0 0 0 0 -0 -0 -0 -0 0 0 0 0 0 0 0 0 nan
nan -0 -0 -0 -0 -0 -0 -0 -0 -0 -0 -0 -0 0 0 0 0 0 0 0 0 0 0 0 0 0 0 0 0 0 0 0 0 0 0 0 0 0 0 0 0 1 1 1 1 0 -0 -1 -1 -1 -0 0 0 0 0 0 0 -0 -0 0 0 0 0 0 0 0 0 0 nan
nan -0 -0 -0 -0 -0 -0 -0 -0 -0 0 0 0 0 0 0 0 0 0 0 0 0 0 0 0 0 0 0 0 0 0 0 0 0 0 0 0 0 0 0 0 0 1 1 1 0 -0 -1 -1 -0 0 0 0 0 0 0 0 -0 0 0 0 0 0 0 0 0 0 0 nan
nan -0 -0 -0 0 0 0 0 0 0 0 0 0 0 0 0 0 0 0 0 0 0 0 0 0 0 0 0 0 0 0 0 0 0 0 0 0 0 0 0 0 0 1 1 0 0 -0 -0 -0 -0 -0 0 0 0 0 0 0 0 0 0 0 0 0 0 0 0 0 0 nan
nan 0 0 0 0 0 0 0 0 0 0 0 0 0 0 0 0 0 0 0 0 0 0 0 0 0 0 0 0 0 0 0 0 0 0 0 0 0 0 0 0 0 0 0 0 -0 -0 -0 -0 -0 -0 0 0 0 0 0 0 0 0 0 0 0 0 0 0 0 0 0 nan
nan 0 0 0 0 0 0 0 0 0 0 0 0 0 0 0 0 0 0 0 0 0 0 0 0 0 0 0 0 0 0 0 0 0 0 0 0 0 0 0 0 0 0 0 0 -0 -0 -0 -0 -0 -0 -0 0 0 0 0 0 0 0 0 0 0 0 0 0 0 0 0 nan
nan 0 0 0 0 -0 -0 -0 -0 -0 -0 -0 -0 -0 -0 -0 0 0 0 0 0 0 0 0 0 0 0 0 0 0 0 0 0 0 0 0 0 0 0 0 0 0 0 0 0 -0 -0 -0 -0 -0 -0 -0 0 0 0 0 0 0 0 0 0 0 0 0 0 0 0 0 nan
nan -0 -0 -0 -0 -0 -0 -0 -0 -0 -0 -0 -0 -0 -0 -0 0 0 0 0 0 0 0 0 0 0 0 0 0 0 -0 -0 -0 -0 -0 -0 -0 -0 -0 0 0 0 0 0 -0 -0 -0 -0 -0 -0 -0 -0 -0 -0 -0 -0 -0 0 0 0 0 0 0 0 0 0 0 0 nan
nan -0 -0 -0 -0 -0 -0 -0 -0 -0 -0 0 0 0 0 0 0 0 0 0 0 0 0 -0 -0 -0 -0 -0 -0 -0 -0 -0 -0 -0 -0 -0 -0 -0 -0 -0 0 -0 -0 -0 -0 -0 -0 -0 -0 -0 -0 -0 -0 -0 -0 -0 -0 -0 -0 -0 -0 -0 -0 -0 -0 -0 -0 -0 nan
nan -0 -0 -0 -0 -0 -0 0 0 0 0 0 0 0 0 0 0 0 0 0 -0 -0 -0 -0 -0 -0 -0 -0 -0 -0 -0 -0 -0 -0 -0 -0 -0 -0 -0 -0 -0 -0 -0 -0 -0 -0 -0 -0 -0 -0 -0 -0 -0 -0 -0 -0 -0 -0 -0 -0 -0 -0 -0 -0 -0 -0 -0 -0 nan
nan 0 0 0 0 0 0 0 0 0 0 0 0 0 0 0 0 -0 -0 -0 -0 -0 -0 -0 -0 -0 -0 -0 -0 -0 -0 -0 -0 -0 -0 -0 -0 -0 -0 -0 -0 -0 -0 -0 -0 -0 -0 -0 -0 -0 -0 -0 -0 -0 -0 -0 -0 -0 -0 -0 -0 -0 -0 -0 -0 -0 -0 -0 nan
nan 0 0 0 0 0 0 0 0 0 0 0 0 0 0 0 0 -0 -0 -0 -0 -0 -0 -0 -0 -0 -0 -0 -0 -0 -0 -0 -0 -0 -0 -0 -0 -0 -0 -0 -0 -0 -0 -0 -0 -0 -0 -0 -0 -0 -0 -0 -0 -0 0 0 0 0 0 0 -0 -0 -0 -0 -0 -0 -0 -0 nan
nan 0 0 0 0 0 0 0 0 0 0 0 0 0 0 -0 -0 -0 -0 -0 -0 -0 -0 -0 -0 -0 -0 -0 -0 -0 -0 -0 -0 -0 -0 -0 -0 -0 -0 -0 -0 -0 -0 -0 -0 -0 -0 -0 -0 0 0 0 0 0 0 0 0 0 0 0 0 0 0 -0 -0 -0 -0 0 nan
nan nan nan nan nan nan nan nan nan nan nan nan nan nan nan nan nan nan nan nan nan nan nan nan nan nan nan nan nan nan nan nan nan nan nan nan nan nan nan nan nan nan nan nan nan nan nan nan nan nan nan nan nan nan nan nan nan nan nan nan nan nan nan nan nan nan nan nan nan
Wind_Speed
37 37 37 37 37 37 36 36 36 35 34 33 32 31 30 29 28 27 26 25 25 24 24 23 22 22 21 20 19 18 18 18 19 21 22 23 24 25 26 26 27 27 27 27 27 28 29 29 30 32 34 37 37 35 33 32 32 32 32 32 31 31 30 30 31 31 31 31 31
36 37 37 37 37 37 36 36 35 34 34 32 31 30 29 28 27 26 26 25 24 24 23 23 22 22 21 20 19 18 18 17 17 17 19 21 22 23 25 26 27 28 28 28 27 28 29 30 31 33 36 38 38 37 35 33 32 32 33 33 32 31 30 31 31 31 31 31 32
36 36 37 37 37 36 36 35 34 34 33 32 30 29 29 28 27 26 25 25 24 24 23 23 22 21 21 20 19 18 18 17 16 16 17 18 19 21 23 25 27 28 28 28 28 29 29 30 31 34 36 38 39 38 37 35 33 32 32 33 33 32 31 31 31 31 31 31 32
35 35 36 36 36 36 35 34 33 33 32 31 30 29 28 28 27 26 25 24 24 24 23 23 22 21 21 20 19 18 18 17 16 16 16 16 17 18 20 21 23 24 25 27 28 29 30 32 33 35 36 37 37 37 37 36 35 33 32 32 33 34 33 31 31 31 31 31 31
34 34 35 35 35 35 34 33 32 32 31 30 29 29 28 27 26 26 25 24 24 23 22 22 22 21 20 20 19 18 17 17 16 16 16 16 16 17 17 18 19 20 22 24 26 28 30 33 34 35 36 36 36 36 37 36 35 34 32 32 34 36 36 34 32 31 31 31 31
32 33 33 34 34 33 33 32 32 31 30 29 29 28 28 27 26 25 25 24 23 22 22 22 21 21 20 19 19 18 17 16 16 16 16 16 16 17 17 17 17 18 19 21 24 27 29 32 33 34 33 34 34 35 35 36 36 35 34 34 35 37 36 35 33 33 33 33 32
30 31 32 33 33 32 32 31 30 30 29 29 28 28 27 26 25 25 24 23 23 22 22 21 21 20 19 19 18 17 16 16 16 16 16 16 16 17 17 17 18 19 19 21 22 24 26 27 28 28 28 28 29 31 33 35 36 36 36 36 37 37 36 35 34 34 34 34 34
29 30 31 31 31 31 31 30 30 29 29 28 28 27 26 25 25 24 23 23 22 22 21 20 20 19 18 18 17 16 16 15 15 15 15 16 16 17 17 18 18 19 20 20 21 22 22 22 23 23 23 23 24 27 29 31 34 35 36 37 38 37 36 35 35 34 35 35 35
28 29 30 30 30 30 29 29 29 28 28 27 26 25 25 24 24 24 23 22 21 21 20 19 18 18 17 16 15 15 15 14 14 14 14 14 14 15 16 17 18 18 19 19 20 20 20 21 21 21 21 21 22 24 26 28 31 34 36 37 38 37 37 36 35 35 35 35 36
27 27 28 28 29 28 28 28 27 27 26 25 25 24 24 24 23 23 22 21 20 19 19 17 16 15 15 14 14 13 13 12 12 11 11 11 12 13 14 15 17 18 18 19 19 20 20 20 20 20 21 22 23 24 25 27 30 33 36 37 37 37 36 36 36 36 36 35 36
24 25 26 26 26 26 26 26 26 25 25 24 24 24 23 23 22 21 20 19 18 18 16 15 14 13 13 13 12 12 11 10 10 10 11 11 13 14 15 16 17 17 17 17 18 18 18 19 19 20 21 22 24 25 26 26 28 31 33 35 36 37 37 36 36 36 36 36 36
21 22 23 24 24 24 24 24 24 24 23 23 23 22 21 20 19 18 17 17 16 15 14 13 12 12 11 11 10 10 10 10 10 11 12 14 15 16 16 16 15 15 15 15 16 16 17 17 18 19 20 21 23 24 25 26 27 29 31 33 35 36 37 37 37 37 37 37 36
17 19 20 21 21 22 22 22 22 22 21 21 20 19 18 17 16 15 15 14 13 12 11 11 10 10 10 9 10 10 10 11 11 12 13 14 14 14 13 13 13 13 13 14 15 16 16 17 18 19 20 22 23 25 26 27 28 29 30 31 32 33 34 35 35 35 35 35 35
14 16 17 18 18 19 19 19 19 19 18 17 16 15 14 14 13 12 12 11 10 10 10 9 9 9 9 10 10 10 10 10 11 11 12 12 12 11 11 11 11 12 12 14 15 15 16 17 19 20 21 22 23 24 25 26 26 27 27 28 28 28 29 29 30 30 30 30 30
12 13 14 14 15 15 16 16 15 15 14 13 12 11 11 10 10 9 9 9 9 9 8 8 9 10 10 11 10 10 10 10 10 11 11 10 10 10 11 11 11 12 13 14 15 16 17 18 19 19 19 20 20 20 21 21 21 22 22 22 22 22 23 23 23 23 23 24 24
11 11 11 11 12 12 12 11 11 11 10 9 9 8 8 8 7 7 8 8 8 8 8 9 10 10 10 9 9 9 9 10 10 10 10 10 10 11 11 11 11 12 13 13 14 15 16 16 17 17 17 16 17 17 17 17 18 18 18 18 18 18 18 18 18 18 18 18 19
10 10 10 9 9 9 9 8 8 8 7 7 7 6 6 6 6 7 7 7 7 8 8 9 9 9 8 8 9 9 9 10 10 10 10 11 11 11 11 11 11 12 12 12 13 13 13 13 13 14 14 15 15 15 16 16 16 16 16 16 16 15 15 15 15 14 14 15 15
10 10 9 9 8 8 8 7 7 7 6 6 6 6 6 6 6 6 6 7 7 7 7 8 8 8 8 8 9 9 9 10 11 11 11 11 10 10 11 12 12 13 13 13 12 12 12 12 12 12 13 14 15 15 16 16 16 16 16 16 15 15 15 14 14 14 14 14 14
10 10 9 9 8 8 7 7 7 6 6 6 6 5 5 6 6 6 6 6 7 7 7 8 8 8 9 9 9 10 10 11 12 11 11 11 11 12 13 15 15 16 16 15 15 15 15 14 14 14 14 15 15 16 16 17 17 17 17 17 16 15 15 15 15 15 15 14 14
10 10 9 9 8 8 8 7 7 6 6 6 6 6 6 6 6 6 6 7 7 7 8 8 9 9 9 10 10 11 12 12 12 12 12 13 13 14 15 16 17 17 18 18 18 18 18 18 18 17 17 17 17 17 17 17 17 18 18 17 16 15 15 15 15 15 15 15 14
10 10 10 9 9 8 8 8 7 7 7 6 6 6 6 6 6 7 7 7 7 8 8 9 10 10 11 11 12 13 13 13 13 13 14 15 15 15 16 16 16 17 17 18 18 19 19 19 19 19 19 20 19 19 18 17 17 17 17 17 16 16 15 15 15 15 15 15 14
11 10 10 10 9 9 9 8 8 7 7 7 7 7 7 7 7 8 8 8 8 9 9 10 11 11 12 13 14 15 15 15 14 14 15 16 16 15 15 16 16 16 16 16 17 18 18 19 19 20 20 20 20 20 19 18 17 17 16 16 16 16 16 16 16 16 16 15 15
11 11 11 10 10 9 9 9 8 8 7 7 7 7 7 8 8 9 9 9 9 10 10 11 12 13 14 15 15 16 16 16 16 16 16 16 16 16 16 16 15 15 15 16 17 17 18 19 20 20 20 20 20 20 20 19 18 17 16 16 16 16 16 16 16 15 15 15 14
12 11 11 11 10 10 9 9 8 8 8 8 8 8 8 8 9 9 10 10 10 11 12 13 13 14 15 15 16 16 16 17 17 17 17 17 17 17 16 16 16 15 16 17 17 18 19 20 20 20 20 20 20 19 19 18 18 17 16 16 16 15 15 15 15 14 14 13 12
12 11 11 11 10 10 9 9 9 9 9 8 8 8 9 9 9 10 10 10 11 12 13 13 14 14 15 15 16 16 17 17 17 17 17 17 17 17 17 16 16 16 16 17 18 19 20 20 20 20 19 19 18 18 18 18 18 17 16 16 16 15 15 14 14 13 12 11 11
12 11 11 11 10 10 10 9 9 9 9 9 9 9 9 9 10 10 11 11 12 12 13 13 14 14 15 15 16 16 17 17 17 17 18 18 18 18 17 17 16 16 17 18 19 20 20 20 19 18 17 17 17 17 18 17 17 16 16 15 15 15 14 13 12 12 11 10 10
11 11 11 11 11 10 10 10 10 10 9 9 9 9 10 10 10 11 11 11 12 12 13 13 14 14 15 15 15 16 16 17 17 17 17 17 17 18 18 18 17 17 17 18 19 19 20 20 19 17 16 16 16 17 17 16 15 15 14 14 14 13 13 12 11 11 10 10 10
12 11 11 11 11 10 10 10 10 9 9 9 9 9 10 10 10 10 11 11 12 12 12 13 13 14 14 15 15 15 15 16 16 16 16 17 17 17 17 18 17 17 17 17 18 18 19 19 18 17 16 15 15 16 15 14 13 13 13 12 12 11 11 10 10 10 10 9 9
12 11 11 11 10 10 10 9 9 9 9 9 9 9 9 9 10 10 10 10 11 11 11 12 12 13 13 13 14 14 14 14 15 15 15 15 16 16 17 17 17 16 16 16 17 17 18 18 17 16 15 15 14 14 13 12 12 11 11 11 10 10 9 9 9 9 9 9 9
11 11 10 10 10 9 9 8 8 8 8 8 8 8 8 8 8 9 9 9 10 10 10 11 11 11 11 11 12 12 12 12 13 13 13 14 14 15 15 15 15 15 15 15 16 16 16 16 16 16 15 14 13 12 12 11 11 10 10 10 9 9 8 8 8 9 9 9 10
10 10 9 9 8 8 8 7 7 7 7 7 7 7 7 7 7 7 7 8 8 8 8 9 9 9 9 10 10 10 10 11 11 11 12 12 13 13 14 14 14 14 14 15 15 15 15 15 15 15 15 14 12 11 11 10 10 10 9 9 9 8 8 8 9 9 10 10 11
9 9 8 8 8 7 7 6 6 6 6 6 6 6 6 6 6 6 6 6 6 6 7 7 7 7 7 8 8 8 9 9 10 10 10 11 11 12 12 13 13 13 13 13 14 14 14 14 14 15 15 14 12 11 10 10 9 9 9 9 9 9 9 9 10 10 11 11 12
8 8 8 7 7 7 6 6 6 6 5 5 5 5 4 4 4 4 5 5 5 5 5 5 5 6 6 6 7 7 7 8 8 9 9 9 10 10 11 11 11 11 11 12 12 12 12 13 13 14 14 13 12 11 10 10 10 10 10 10 10 10 10 10 11 11 12 13 13
8 8 8 7 7 7 6 6 6 5 5 4 4 4 4 4 3 4 4 4 4 4 4 4 4 4 5 5 5 6 6 6 7 7 7 8 8 9 9 9 9 9 9 10 10 10 11 11 12 12 12 11 11 10 10 10 10 10 10 10 10 10 11 11 12 13 13 14 15
9 8 8 8 7 7 6 6 5 5 5 4 4 4 3 3 3 3 3 3 3 3 3 3 3 4 4 4 5 5 5 5 6 6 6 7 7 7 7 7 7 7 7 8 8 9 10 10 10 10 10 10 10 10 10 10 10 10 10 10 11 12 12 13 14 14 15 16 17
9 9 8 8 8 7 6 6 5 5 5 4 4 3 3 3 3 2 2 2 1 1 1 2 2 3 3 4 4 5 5 5 5 6 6 6 6 6 6 6 6 6 6 7 8 8 8 9 9 9 9 9 9 10 10 10 11 11 12 12 13 14 14 15 16 17 17 18 19
10 9 9 8 8 7 7 6 6 5 5 4 4 3 3 3 2 2 2 1 1 1 2 2 3 3 4 4 5 5 5 5 6 6 5 6 6 5 5 5 5 5 6 7 7 7 7 8 8 8 9 9 10 10 11 11 12 13 13 14 15 16 16 17 18 19 19 20 21
10 9 9 8 8 8 7 6 6 6 5 5 4 4 4 3 3 3 3 2 3 3 3 4 4 5 5 5 5 6 6 5 5 5 5 5 5 5 5 5 5 5 6 6 7 7 7 7 8 9 9 10 10 11 12 12 13 14 14 15 16 17 18 19 19 20 20 21 22
10 10 9 9 8 8 7 7 7 6 6 6 5 5 5 4 4 4 4 5 5 5 5 5 5 6 6 6 6 6 5 5 5 5 4 4 4 5 5 5 5 5 6 7 7 7 8 8 9 9 10 11 11 12 13 14 14 15 16 16 17 18 19 20 20 21 21 22 22
10 10 9 9 8 8 8 8 8 7 7 6 6 6 6 5 5 6 6 6 7 6 6 6 6 6 7 6 6 5 5 5 5 4 4 4 4 4 5 5 5 6 6 7 8 9 10 10 11 11 12 13 13 14 15 15 16 17 17 18 19 19 20 21 21 22 22 23 23
11 10 10 10 9 9 8 8 8 8 8 7 7 7 7 7 7 7 7 8 8 7 7 7 7 7 7 6 6 5 5 5 4 4 4 4 4 4 4 5 6 6 7 8 9 11 12 13 13 14 14 15 16 16 17 18 18 19 19 20 21 21 21 22 23 23 23 24 24
Wind_Direction
232 233 234 235 236 237 239 241 243 245 247 249 251 254 258 261 264 268 273 276 279 282 283 284 285 285 284 283 282 282 282 281 273 268 267 267 267 267 267 266 266 266 267 268 268 268 268 269 271 272 272 270 265 260 257 257 259 260 257 252 248 247 248 252 256 258 260 261 262
231 233 234 235 236 237 238 240 242 244 247 250 253 256 259 263 266 270 273 277 280 282 284 285 285 285 285 285 285 285 285 285 284 279 273 270 270 270 269 267 266 266 266 267 269 270 270 272 273 273 272 270 266 262 259 258 259 261 262 260 255 250 248 247 250 255 259 262 263
231 232 233 234 235 236 238 239 241 244 247 250 253 257 260 263 266 270 273 276 279 281 282 283 284 285 286 287 287 288 288 288 289 287 281 274 274 273 271 270 269 268 268 269 270 270 272 273 274 273 271 269 266 264 262 260 259 260 263 265 263 258 253 249 248 251 255 259 261
231 232 233 234 236 237 239 241 243 246 249 251 254 257 259 262 265 269 272 275 277 279 281 283 285 286 287 288 289 290 291 291 291 289 286 281 280 278 278 277 276 275 274 273 273 273 273 273 273 272 270 268 267 266 265 262 261 261 264 268 269 266 261 255 252 251 252 255 258
232 233 234 236 237 239 241 243 245 247 250 252 254 256 259 261 264 268 271 274 276 279 282 284 285 286 288 289 290 292 293 293 292 290 288 286 285 284 283 282 282 281 279 278 277 277 276 275 274 273 272 272 272 271 269 266 263 262 264 267 269 268 265 261 258 256 255 255 255
233 234 236 237 239 241 242 244 246 248 250 252 253 255 258 261 264 267 271 274 277 280 282 283 284 286 288 290 292 294 294 294 293 291 290 288 287 285 284 282 282 282 282 281 280 279 279 278 278 278 279 280 279 277 274 270 267 265 265 266 268 267 265 265 264 263 262 260 257
235 236 237 238 240 241 243 245 246 248 249 251 253 255 258 261 264 268 271 275 277 278 280 282 284 286 289 291 293 294 295 294 293 292 291 290 289 286 285 283 282 281 281 281 281 281 281 281 282 283 285 286 285 283 280 277 273 270 269 268 269 267 266 267 267 267 267 266 264
236 237 237 239 240 242 243 245 246 247 249 251 253 255 259 262 265 268 270 273 274 277 279 281 284 286 289 291 293 294 294 294 293 294 294 293 291 290 288 287 285 283 282 281 281 281 281 281 282 284 285 285 286 286 285 283 281 278 275 272 271 269 268 269 269 269 269 269 269
235 236 238 239 241 242 244 245 246 248 249 252 254 257 260 262 264 266 268 270 273 276 279 281 284 287 290 291 292 293 294 294 295 296 295 295 294 293 292 291 289 287 285 283 282 282 282 282 282 282 282 283 284 284 286 286 286 283 279 275 272 271 270 270 271 271 271 271 272
235 236 237 238 240 242 244 245 247 249 251 254 256 258 259 261 262 264 267 270 274 276 279 281 285 288 290 291 292 292 293 293 293 292 290 289 289 289 289 289 288 287 287 287 286 286 285 285 284 284 283 283 283 284 285 287 289 287 284 280 276 273 272 272 272 272 272 273 274
236 237 238 239 241 242 243 245 247 249 251 253 255 256 257 259 261 265 268 271 273 276 279 282 285 287 288 288 288 287 286 285 285 284 283 282 282 283 284 286 287 289 290 291 290 290 289 288 288 288 288 287 286 287 287 287 288 289 288 286 283 281 278 276 274 274 274 274 275
237 238 239 240 241 242 243 244 246 247 249 251 253 255 257 260 263 266 268 270 273 276 280 282 282 282 282 282 282 282 282 281 281 281 282 284 286 288 289 291 292 292 291 289 289 290 290 291 292 291 291 290 288 287 287 286 287 288 289 289 288 287 285 283 281 280 278 278 277
234 236 237 238 240 241 242 244 245 247 249 251 253 255 258 261 263 265 267 270 273 276 277 277 277 277 277 278 280 281 282 281 281 283 287 290 293 294 294 293 292 290 288 285 287 289 291 293 293 292 291 289 288 287 287 287 287 288 288 289 289 290 290 290 289 287 286 284 282
228 231 233 235 237 239 240 242 244 246 248 250 252 254 257 259 260 263 266 269 272 272 272 272 272 272 272 274 278 281 281 281 280 284 289 293 294 291 286 284 284 284 284 283 284 286 289 291 294 295 294 293 293 292 292 292 292 292 292 292 292 292 293 293 293 293 292 290 289
216 220 224 227 231 233 236 238 240 242 244 246 248 249 251 253 256 260 263 265 266 266 265 266 266 269 273 276 279 280 280 280 280 281 284 286 285 281 278 276 278 280 281 281 281 282 283 286 292 296 298 298 298 298 297 297 297 296 295 295 295 295 295 295 295 295 295 294 293
199 203 208 212 217 220 224 227 229 231 233 235 237 239 242 246 249 253 255 256 257 258 260 263 268 273 277 280 281 280 280 280 279 278 277 275 276 276 276 276 277 279 281 281 281 281 282 284 288 292 295 297 298 298 298 298 298 298 298 297 297 297 296 296 296 295 295 295 294
179 182 186 189 194 199 202 206 209 213 215 219 221 226 231 236 239 242 244 248 251 253 258 266 272 276 278 277 278 278 277 274 273 272 271 272 274 275 276 275 276 278 281 284 286 286 286 286 286 288 290 292 293 294 294 295 295 296 296 297 297 296 295 294 293 293 292 290 289
163 164 166 169 172 176 181 186 190 195 199 204 209 214 220 226 230 233 237 242 247 252 259 266 270 271 271 271 272 271 269 267 266 267 268 269 270 269 268 267 267 269 274 280 285 288 289 289 288 287 287 288 288 289 290 290 291 291 291 291 290 290 289 289 288 287 286 285 284
153 153 155 156 159 163 168 174 179 183 187 192 197 203 211 217 222 227 232 239 245 252 257 260 263 265 265 264 263 263 262 262 262 262 261 261 260 261 261 261 261 263 265 269 274 277 280 281 283 283 284 284 285 285 286 286 286 286 285 284 284 284 284 285 285 284 284 283 283
149 149 150 152 154 158 162 167 171 176 180 185 191 197 204 211 217 223 228 236 242 248 252 253 255 256 257 257 257 258 258 259 259 258 258 257 258 259 260 262 263 263 264 265 266 268 270 272 274 275 277 279 281 282 283 283 282 282 281 281 282 282 283 283 283 282 282 281 281
148 148 149 151 154 157 161 164 168 173 178 184 190 195 202 209 215 221 226 232 237 241 244 246 248 250 251 252 253 255 257 258 259 260 262 262 262 262 263 263 265 266 266 265 265 265 266 266 267 269 271 273 276 279 281 281 280 280 280 281 282 283 283 282 281 280 279 278 276
150 151 153 155 158 160 163 167 170 175 180 185 191 196 202 208 214 219 224 228 232 235 239 242 245 246 248 250 251 254 257 260 262 264 266 266 266 266 265 264 265 267 267 267 266 265 264 264 264 266 267 269 272 275 278 280 280 280 281 282 283 284 283 282 280 278 276 274 272
155 157 159 161 163 165 168 171 175 179 184 189 195 201 206 211 216 220 223 226 229 232 236 240 243 245 247 249 252 255 259 262 264 265 266 266 266 266 265 264 264 264 264 264 264 264 263 263 263 264 265 267 269 272 276 279 281 283 283 284 284 283 282 280 278 275 273 271 269
160 162 164 166 168 170 173 176 180 184 189 194 200 206 211 216 219 222 225 228 231 234 238 241 244 247 250 253 256 258 261 263 264 265 265 265 265 265 264 263 262 261 261 261 262 262 262 261 261 263 264 267 269 272 276 279 283 285 285 285 284 283 281 279 276 273 271 269 268
163 166 168 170 172 174 178 181 185 190 195 200 206 211 216 221 225 228 231 234 236 239 243 246 249 252 255 258 261 263 265 266 266 266 266 265 265 265 264 262 260 258 258 259 260 262 262 262 262 263 265 269 272 275 279 282 284 286 286 286 285 284 282 280 276 274 272 271 272
167 169 171 174 177 180 183 187 191 195 200 205 211 216 221 226 231 235 238 241 244 247 250 253 256 259 262 264 266 268 269 269 269 269 268 267 267 266 265 263 259 258 258 259 261 263 264 264 264 265 269 273 277 280 283 285 285 286 286 286 285 285 283 280 278 275 274 274 274
171 174 176 180 183 186 189 193 197 201 206 211 216 221 226 232 238 242 245 248 253 256 259 262 264 266 268 270 271 272 272 272 272 272 271 270 269 268 266 264 261 259 258 260 263 266 268 268 267 268 271 276 279 282 284 285 285 286 286 285 285 284 282 279 278 276 275 275 275
176 179 182 185 188 191 194 199 203 207 212 217 222 228 233 239 244 248 252 256 260 263 266 268 269 271 272 273 274 274 274 274 274 274 273 273 272 270 268 267 264 261 261 263 267 270 272 272 270 271 273 276 280 282 283 283 283 283 284 283 282 280 279 277 276 276 275 275 274
180 183 186 189 192 195 199 203 208 213 218 223 229 235 240 245 250 255 259 262 265 267 269 271 272 272 273 273 274 275 276 276 275 275 275 275 274 273 272 270 267 266 265 267 271 273 275 275 274 273 274 277 280 281 281 280 279 279 279 278 276 275 275 274 274 273 272 272 271
183 186 189 192 195 198 202 207 212 218 224 230 236 241 246 251 255 259 262 265 266 268 269 271 272 272 272 273 275 275 276 276 276 277 276 276 276 276 275 274 272 271 271 274 276 277 277 276 276 276 276 278 278 278 276 275 274 273 272 272 271 269 269 269 268 267 266 265 263
184 186 190 193 196 200 204 209 215 221 227 233 237 242 247 251 255 257 259 262 263 265 267 269 270 271 272 274 276 277 278 279 280 280 280 280 280 280 280 280 278 277 278 279 280 279 278 277 277 278 278 278 276 273 271 270 269 268 266 266 265 264 263 262 261 261 260 260 260
182 185 188 191 195 198 201 206 212 217 222 227 232 236 240 244 246 250 251 255 258 261 263 267 270 272 275 278 280 282 284 285 286 287 288 289 289 289 288 286 284 284 284 284 283 281 280 278 278 279 279 279 274 269 267 266 265 264 264 263 263 263 263 262 263 263 264 266 267
178 180 184 187 189 192 195 199 202 206 211 215 219 223 227 230 235 238 244 249 254 260 265 270 276 280 284 286 290 292 294 296 297 300 301 301 300 299 296 293 291 290 289 287 286 283 281 279 279 281 282 281 278 273 269 267 266 266 267 268 269 272 273 274 275 276 277 278 279
171 174 177 179 181 183 185 188 191 194 197 200 203 207 211 217 224 231 237 246 255 265 274 282 288 294 298 302 304 306 309 312 315 316 316 315 313 310 306 301 298 296 293 290 288 285 283 282 282 284 286 287 285 282 279 276 276 277 278 280 284 286 288 289 289 288 287 287 286
165 168 170 171 173 174 175 177 179 182 184 187 191 196 202 208 217 223 232 244 258 272 286 300 309 316 321 326 329 331 332 334 335 335 333 330 327 322 316 309 304 302 298 294 291 289 288 289 290 293 294 296 297 297 295 295 295 296 297 298 298 297 296 295 294 292 291 290 288
161 163 166 167 167 168 168 170 171 174 176 179 183 189 196 201 206 211 222 235 255 283 317 339 347 352 357 358 359 1 359 357 354 351 348 344 340 333 327 319 313 309 305 302 299 300 301 303 304 306 307 309 310 311 311 311 310 309 308 306 303 300 298 296 295 294 293 292 291
160 162 163 165 165 164 164 165 167 170 171 173 175 176 178 181 177 177 176 171 111 63 46 38 35 33 30 27 26 23 19 14 8 3 358 354 350 345 339 332 324 319 316 315 315 316 317 317 317 317 317 317 317 316 316 314 312 310 307 305 302 300 298 297 296 296 296 295 295
160 161 162 162 162 162 162 162 163 163 163 162 160 157 153 150 144 134 123 104 87 72 62 57 54 51 48 43 40 34 30 26 20 14 9 6 2 359 354 350 342 335 330 329 328 327 326 323 321 320 318 316 314 312 310 308 306 304 302 300 299 298 297 297 297 296 296 297 297
159 159 159 159 158 157 156 155 155 153 151 149 144 140 135 129 122 112 101 92 83 75 69 66 64 62 58 54 50 45 41 37 33 27 22 20 16 13 9 4 358 348 341 335 331 327 324 320 317 315 312 310 307 305 303 301 301 299 298 298 297 296 296 296 296 297 297 297 298
156 155 153 153 152 150 149 147 145 142 139 136 131 127 120 114 108 100 92 87 82 78 74 72 70 68 66 64 61 57 52 47 44 39 34 29 23 17 13 6 356 346 337 329 325 320 317 314 311 308 306 304 302 300 299 298 299 299 298 297 297 296 296 296 296 297 298 298 299
150 149 148 146 144 143 141 139 136 133 130 125 120 115 109 103 98 92 89 86 84 81 78 76 75 73 72 71 68 64 58 54 50 43 34 25 15 8 359 350 341 332 325 320 317 314 312 309 307 305 303 302 301 300 299 299 300 300 299 299 298 298 298 298 299 300 301 301 302
Height
1470 1472 1473 1474 1475 1477 1478 1480 1481 1482 1484 1485 1487 1488 1489 1490 1492 1493 1494 1495 1496 1497 1498 1499 1500 1502 1503 1504 1505 1506 1506 1507 1508 1508 1509 1509 1509 1510 1510 1511 1511 1511 1512 1512 1513 1513 1514 1514 1514 1514 1514 1514 1514 1514 1515 1516 1516 1516 1516 1516 1517 1518 1519 1520 1520 1521 1521 1521 1521
1470 1471 1472 1473 1475 1476 1477 1479 1480 1481 1483 1485 1486 1487 1489 1490 1491 1492 1493 1494 1495 1496 1497 1498 1499 1500 1501 1502 1503 1504 1505 1505 1506 1507 1507 1507 1508 1508 1509 1509 1509 1510 1510 1510 1511 1511 1512 1512 1512 1512 1512 1512 1512 1512 1512 1513 1514 1515 1515 1515 1515 1515 1516 1517 1517 1518 1519 1519 1519
1469 1470 1471 1472 1474 1475 1476 1478 1479 1481 1482 1484 1485 1486 1488 1489 1490 1491 1492 1493 1494 1495 1496 1497 1498 1499 1500 1501 1502 1502 1503 1504 1505 1505 1505 1506 1506 1507 1507 1507 1507 1507 1508 1509 1509 1510 1510 1510 1510 1510 1510 1510 1510 1510 1510 1511 1511 1512 1513 1513 1514 1514 1514 1514 1515 1515 1516 1516 1517
1468 1469 1470 1471 1472 1474 1475 1477 1479 1480 1482 1483 1485 1486 1487 1488 1489 1490 1491 1492 1493 1494 1495 1496 1497 1498 1499 1500 1500 1501 1502 1502 1503 1503 1504 1504 1505 1505 1505 1505 1505 1506 1506 1507 1507 1507 1508 1508 1508 1508 1508 1508 1508 1508 1508 1509 1510 1510 1511 1512 1512 1512 1512 1512 1513 1513 1514 1514 1515
1467 1468 1469 1470 1472 1473 1475 1476 1478 1480 1481 1482 1484 1485 1486 1487 1488 1489 1490 1491 1492 1493 1494 1495 1495 1496 1497 1498 1499 1500 1500 1501 1501 1502 1502 1503 1503 1503 1504 1504 1504 1505 1505 1505 1505 1505 1505 1505 1506 1506 1506 1506 1506 1507 1507 1507 1508 1509 1509 1510 1510 1510 1510 1510 1511 1511 1512 1512 1512
1466 1467 1468 1470 1471 1473 1474 1476 1477 1479 1480 1481 1483 1484 1485 1486 1487 1488 1489 1490 1491 1492 1493 1494 1495 1495 1496 1497 1497 1498 1499 1499 1500 1500 1501 1501 1501 1502 1502 1502 1503 1503 1503 1504 1504 1504 1504 1504 1504 1504 1504 1505 1505 1505 1505 1505 1505 1506 1507 1507 1507 1507 1508 1508 1509 1510 1510 1510 1509
1465 1466 1467 1469 1470 1472 1473 1475 1476 1478 1479 1480 1481 1483 1484 1485 1486 1487 1488 1489 1490 1491 1492 1493 1493 1494 1495 1495 1496 1497 1497 1498 1498 1499 1499 1500 1500 1500 1500 1501 1501 1501 1502 1502 1502 1502 1503 1503 1503 1503 1503 1503 1503 1503 1503 1503 1503 1504 1504 1505 1505 1505 1506 1506 1507 1507 1507 1507 1506
1465 1465 1467 1468 1470 1471 1472 1474 1475 1477 1478 1479 1480 1482 1483 1484 1485 1486 1487 1488 1489 1490 1491 1491 1492 1493 1494 1494 1495 1495 1496 1496 1497 1497 1497 1498 1498 1499 1499 1499 1500 1500 1500 1500 1501 1501 1501 1501 1501 1501 1501 1501 1501 1501 1501 1501 1501 1502 1502 1503 1503 1503 1504 1505 1505 1505 1505 1504 1504
1464 1465 1466 1467 1469 1470 1472 1473 1475 1476 1477 1478 1480 1481 1482 1483 1484 1485 1486 1487 1488 1489 1490 1490 1491 1492 1492 1493 1493 1494 1494 1495 1495 1495 1496 1496 1497 1497 1497 1498 1498 1498 1499 1499 1499 1499 1499 1500 1500 1500 1500 1500 1500 1500 1499 1499 1500 1500 1500 1500 1500 1501 1502 1502 1502 1502 1502 1502 1502
1463 1464 1465 1467 1468 1470 1471 1472 1474 1475 1476 1477 1479 1480 1481 1482 1483 1484 1485 1486 1487 1488 1489 1489 1490 1491 1491 1492 1492 1493 1493 1494 1494 1495 1495 1495 1496 1496 1496 1497 1497 1497 1497 1497 1497 1497 1498 1498 1498 1498 1498 1499 1498 1498 1498 1498 1498 1498 1498 1498 1498 1499 1500 1500 1500 1500 1500 1500 1500
1462 1463 1465 1466 1467 1469 1470 1471 1473 1474 1475 1476 1478 1479 1480 1481 1482 1483 1484 1485 1486 1487 1487 1488 1489 1490 1490 1490 1491 1491 1492 1493 1493 1494 1494 1494 1495 1495 1495 1495 1495 1495 1495 1495 1496 1496 1496 1496 1496 1496 1496 1496 1496 1496 1496 1496 1496 1496 1496 1496 1496 1496 1497 1498 1498 1498 1497 1497 1497
1461 1463 1464 1465 1466 1468 1469 1470 1472 1473 1474 1475 1477 1478 1479 1480 1481 1482 1483 1484 1485 1485 1486 1487 1488 1488 1489 1489 1490 1490 1491 1492 1492 1492 1493 1493 1493 1493 1493 1493 1494 1494 1494 1494 1494 1494 1494 1495 1495 1495 1495 1495 1495 1495 1494 1494 1494 1494 1494 1494 1494 1494 1494 1495 1495 1495 1495 1495 1495
1460 1462 1463 1464 1465 1467 1468 1470 1471 1472 1473 1474 1475 1477 1478 1479 1480 1481 1482 1483 1484 1485 1485 1486 1486 1487 1488 1489 1489 1490 1490 1490 1490 1491 1491 1491 1491 1491 1492 1492 1492 1492 1493 1493 1493 1493 1493 1493 1493 1493 1493 1493 1493 1493 1492 1492 1492 1492 1492 1492 1492 1492 1492 1492 1492 1493 1493 1493 1493
1460 1461 1462 1463 1465 1466 1467 1469 1470 1471 1472 1474 1475 1476 1477 1478 1479 1480 1481 1482 1483 1483 1484 1485 1485 1486 1487 1487 1488 1489 1489 1489 1490 1490 1490 1490 1490 1490 1490 1490 1491 1491 1491 1491 1491 1491 1491 1491 1491 1491 1491 1491 1490 1490 1490 1490 1490 1490 1490 1490 1490 1490 1490 1490 1490 1490 1490 1490 1490
1459 1460 1461 1462 1464 1465 1466 1468 1469 1470 1471 1473 1474 1475 1476 1477 1478 1479 1480 1481 1481 1482 1483 1484 1485 1485 1486 1486 1487 1487 1488 1488 1488 1488 1488 1489 1489 1489 1489 1490 1490 1490 1490 1490 1490 1490 1490 1490 1490 1489 1489 1489 1489 1488 1488 1488 1488 1488 1488 1488 1488 1488 1488 1488 1488 1487 1487 1487 1487
1458 1459 1460 1462 1463 1464 1465 1467 1468 1469 1470 1472 1473 1474 1475 1476 1477 1478 1479 1480 1480 1481 1482 1483 1483 1484 1485 1485 1485 1486 1486 1486 1487 1487 1487 1488 1488 1488 1488 1488 1488 1488 1489 1489 1488 1488 1488 1488 1488 1487 1487 1487 1487 1486 1486 1486 1486 1486 1486 1486 1486 1485 1485 1485 1485 1485 1485 1485 1485
1457 1459 1460 1461 1462 1464 1465 1466 1467 1469 1470 1471 1472 1473 1474 1475 1476 1477 1478 1479 1480 1480 1481 1482 1482 1483 1483 1484 1484 1485 1485 1485 1485 1486 1486 1486 1486 1486 1486 1486 1486 1486 1486 1486 1486 1486 1486 1486 1486 1486 1485 1485 1485 1485 1485 1485 1484 1484 1484 1484 1484 1484 1484 1483 1483 1483 1483 1483 1483
1457 1458 1459 1460 1462 1463 1464 1465 1467 1468 1469 1470 1471 1472 1473 1474 1475 1476 1477 1478 1479 1479 1480 1480 1481 1482 1482 1483 1483 1483 1484 1484 1485 1485 1485 1485 1485 1485 1485 1485 1485 1485 1485 1485 1485 1485 1484 1484 1484 1484 1484 1484 1484 1483 1483 1483 1483 1482 1482 1482 1482 1482 1482 1482 1481 1481 1481 1481 1481
1457 1458 1459 1460 1461 1463 1464 1465 1466 1467 1468 1470 1470 1471 1473 1474 1474 1475 1476 1477 1478 1478 1479 1480 1480 1481 1481 1481 1482 1482 1483 1483 1483 1483 1483 1483 1483 1483 1483 1483 1483 1483 1484 1484 1484 1483 1483 1483 1483 1483 1483 1482 1482 1482 1482 1481 1481 1481 1481 1481 1480 1480 1480 1480 1480 1480 1480 1480 1480
1456 1458 1459 1460 1461 1462 1463 1465 1466 1467 1468 1469 1470 1471 1472 1473 1474 1474 1475 1476 1477 1477 1478 1479 1479 1480 1480 1480 1481 1481 1481 1481 1481 1481 1481 1481 1481 1481 1482 1482 1482 1482 1482 1482 1482 1482 1482 1482 1482 1482 1481 1481 1481 1481 1480 1480 1480 1480 1480 1480 1479 1479 1479 1479 1479 1479 1479 1479 1479
1456 1457 1459 1460 1461 1462 1463 1464 1465 1466 1467 1468 1469 1470 1471 1472 1473 1473 1474 1475 1475 1476 1477 1477 1478 1478 1479 1479 1480 1480 1480 1480 1480 1480 1480 1480 1480 1480 1480 1481 1481 1481 1481 1481 1481 1481 1481 1481 1480 1480 1480 1480 1480 1479 1479 1479 1479 1478 1478 1478 1478 1478 1478 1478 1478 1478 1478 1478 1478
1456 1457 1458 1459 1460 1461 1462 1463 1465 1465 1466 1467 1468 1469 1470 1471 1471 1472 1473 1474 1475 1475 1476 1476 1477 1477 1477 1478 1478 1478 1478 1479 1479 1479 1479 1479 1479 1479 1479 1480 1480 1480 1480 1480 1480 1479 1479 1479 1479 1479 1479 1478 1478 1478 1478 1477 1477 1477 1477 1477 1477 1477 1477 1477 1477 1477 1476 1476 1476
1456 1457 1458 1459 1460 1461 1462 1463 1464 1465 1466 1466 1467 1468 1469 1470 1470 1471 1472 1473 1473 1474 1475 1475 1475 1476 1476 1477 1477 1477 1477 1478 1478 1478 1478 1478 1478 1478 1478 1478 1478 1478 1478 1478 1478 1478 1478 1478 1477 1477 1477 1477 1477 1477 1477 1476 1476 1476 1476 1476 1476 1476 1476 1476 1476 1475 1475 1475 1475
1455 1456 1457 1458 1459 1460 1461 1462 1463 1464 1465 1466 1467 1467 1468 1469 1470 1470 1471 1472 1472 1473 1474 1474 1475 1475 1475 1475 1476 1476 1476 1476 1476 1477 1477 1477 1477 1477 1477 1477 1477 1477 1477 1476 1476 1476 1476 1476 1476 1476 1476 1476 1476 1476 1476 1476 1475 1475 1475 1475 1475 1475 1475 1475 1475 1475 1474 1474 1474
1455 1456 1457 1458 1459 1460 1461 1462 1463 1464 1464 1465 1466 1467 1467 1468 1469 1470 1470 1471 1471 1472 1473 1473 1474 1474 1474 1475 1475 1475 1475 1475 1475 1475 1475 1475 1475 1475 1476 1476 1475 1475 1475 1475 1475 1475 1475 1475 1475 1475 1475 1475 1475 1475 1475 1475 1475 1475 1475 1474 1474 1474 1474 1474 1473 1473 1473 1473 1473
1455 1456 1457 1458 1459 1460 1460 1461 1462 1463 1464 1465 1465 1466 1467 1468 1468 1469 1470 1470 1471 1471 1472 1472 1473 1473 1473 1473 1474 1474 1474 1474 1474 1474 1474 1474 1474 1474 1474 1474 1474 1474 1474 1473 1473 1473 1473 1474 1474 1474 1474 1474 1474 1474 1474 1474 1474 1474 1474 1473 1473 1473 1473 1473 1472 1472 1472 1472 1472
1455 1455 1456 1457 1458 1459 1460 1461 1462 1463 1463 1464 1465 1466 1466 1467 1468 1469 1469 1470 1470 1471 1471 1471 1472 1472 1472 1472 1472 1473 1473 1473 1473 1473 1473 1473 1473 1473 1473 1473 1473 1473 1472 1472 1472 1472 1473 1473 1473 1474 1474 1474 1474 1474 1473 1473 1473 1473 1473 1472 1472 1472 1472 1472 1471 1471 1471 1471 1471
1455 1455 1456 1457 1458 1459 1460 1461 1461 1462 1463 1464 1465 1465 1466 1467 1467 1468 1469 1469 1470 1470 1470 1470 1471 1471 1471 1471 1471 1471 1471 1471 1472 1472 1472 1472 1472 1472 1472 1472 1472 1472 1472 1472 1472 1472 1472 1472 1473 1473 1473 1473 1473 1473 1473 1472 1472 1472 1472 1471 1471 1471 1471 1471 1471 1471 1470 1470 1470
1455 1455 1456 1457 1458 1459 1460 1460 1461 1462 1463 1464 1465 1465 1466 1466 1467 1467 1468 1468 1469 1469 1469 1470 1470 1470 1470 1470 1470 1470 1470 1470 1470 1471 1471 1471 1471 1471 1471 1471 1471 1471 1471 1471 1471 1471 1471 1471 1472 1472 1473 1473 1473 1472 1472 1472 1471 1471 1471 1471 1470 1470 1470 1470 1470 1470 1470 1470 1470
1455 1455 1456 1457 1458 1459 1460 1460 1461 1462 1463 1463 1464 1465 1465 1466 1466 1467 1467 1467 1468 1468 1468 1469 1469 1469 1469 1469 1469 1469 1469 1470 1470 1470 1470 1470 1470 1470 1470 1470 1470 1470 1471 1471 1471 1471 1471 1471 1471 1471 1472 1472 1472 1472 1471 1471 1471 1470 1470 1470 1470 1470 1470 1469 1469 1469 1469 1469 1469
1455 1456 1457 1457 1458 1459 1460 1460 1461 1462 1462 1463 1464 1464 1465 1465 1465 1466 1466 1467 1467 1467 1467 1467 1468 1468 1468 1468 1468 1468 1469 1469 1469 1469 1469 1469 1469 1470 1470 1470 1470 1470 1470 1470 1470 1470 1471 1471 1471 1471 1471 1471 1471 1471 1470 1470 1470 1470 1470 1469 1469 1469 1469 1468 1468 1468 1468 1468 1468
1455 1456 1457 1457 1458 1459 1460 1460 1461 1461 1462 1463 1463 1464 1464 1465 1465 1465 1465 1466 1466 1466 1466 1467 1467 1467 1467 1468 1468 1468 1468 1468 1468 1469 1469 1469 1469 1470 1470 1470 1470 1470 1470 1470 1470 1470 1470 1470 1470 1470 1470 1470 1471 1470 1470 1470 1470 1469 1469 1469 1468 1468 1468 1468 1468 1468 1467 1467 1467
1455 1456 1456 1457 1458 1459 1459 1460 1460 1461 1461 1462 1463 1463 1464 1464 1464 1465 1465 1465 1465 1466 1466 1466 1466 1467 1467 1467 1468 1468 1468 1468 1468 1469 1469 1469 1469 1469 1470 1470 1470 1470 1470 1470 1470 1470 1470 1470 1470 1470 1470 1470 1470 1470 1470 1470 1469 1469 1469 1468 1468 1468 1468 1468 1468 1468 1467 1467 1467
1455 1455 1456 1457 1458 1458 1459 1460 1460 1461 1461 1462 1462 1463 1463 1464 1464 1464 1465 1465 1465 1466 1466 1466 1467 1467 1467 1467 1468 1468 1468 1468 1469 1469 1469 1469 1469 1469 1469 1470 1470 1470 1470 1470 1470 1470 1470 1470 1470 1470 1470 1470 1470 1470 1470 1469 1469 1469 1469 1468 1468 1468 1468 1468 1468 1467 1467 1467 1467
1455 1455 1456 1457 1457 1458 1459 1460 1460 1460 1461 1462 1462 1462 1463 1463 1464 1464 1465 1465 1465 1466 1466 1466 1467 1467 1467 1468 1468 1468 1468 1468 1469 1469 1469 1469 1469 1469 1469 1469 1470 1470 1470 1470 1470 1470 1470 1470 1470 1470 1470 1470 1470 1470 1469 1469 1469 1469 1469 1468 1468 1468 1468 1467 1467 1467 1466 1466 1466
1455 1455 1456 1457 1458 1458 1459 1460 1460 1460 1461 1462 1462 1462 1463 1463 1464 1464 1465 1465 1466 1466 1466 1467 1467 1467 1467 1468 1468 1468 1468 1469 1469 1469 1469 1469 1469 1469 1469 1470 1470 1470 1470 1470 1470 1470 1470 1470 1470 1470 1470 1470 1469 1469 1469 1469 1469 1468 1468 1468 1467 1467 1467 1466 1466 1466 1465 1465 1465
1455 1456 1456 1457 1458 1458 1459 1460 1460 1461 1461 1462 1462 1463 1463 1464 1464 1465 1465 1466 1466 1466 1467 1467 1467 1467 1468 1468 1468 1468 1469 1469 1469 1469 1469 1469 1470 1470 1470 1470 1470 1470 1470 1470 1470 1470 1470 1470 1470 1470 1470 1469 1469 1469 1469 1468 1468 1468 1467 1467 1466 1466 1466 1465 1465 1465 1464 1464 1463
1455 1456 1457 1457 1458 1459 1459 1460 1460 1461 1462 1462 1463 1463 1464 1464 1465 1465 1465 1466 1466 1467 1467 1467 1467 1468 1468 1468 1469 1469 1469 1469 1469 1469 1470 1470 1470 1470 1470 1470 1470 1470 1470 1470 1470 1470 1470 1470 1470 1470 1469 1469 1469 1468 1468 1468 1467 1467 1467 1466 1466 1465 1465 1465 1464 1464 1463 1463 1462
1456 1456 1457 1458 1459 1459 1460 1460 1461 1462 1462 1463 1463 1464 1464 1465 1465 1465 1466 1466 1467 1467 1467 1467 1468 1468 1468 1469 1469 1469 1469 1469 1470 1470 1470 1470 1470 1470 1470 1470 1470 1470 1470 1470 1470 1470 1470 1470 1470 1469 1469 1469 1468 1468 1468 1467 1467 1466 1466 1465 1465 1465 1464 1464 1463 1463 1462 1461 1461
1456 1457 1458 1459 1459 1460 1460 1461 1461 1462 1463 1463 1464 1464 1465 1465 1465 1466 1466 1467 1467 1467 1468 1468 1468 1468 1469 1469 1469 1469 1470 1470 1470 1470 1470 1470 1470 1470 1470 1470 1470 1470 1470 1470 1470 1470 1469 1469 1469 1469 1469 1468 1468 1467 1467 1467 1466 1466 1465 1465 1464 1464 1463 1462 1462 1461 1461 1460 1460
1457 1458 1458 1459 1460 1460 1461 1461 1462 1463 1463 1464 1464 1465 1465 1465 1466 1466 1467 1467 1467 1468 1468 1468 1469 1469 1469 1469 1470 1470 1470 1470 1470 1470 1470 1470 1470 1470 1471 1470 1470 1470 1470 1470 1470 1469 1469 1468 1468 1468 1468 1467 1467 1467 1466 1466 1465 1465 1464 1464 1463 1462 1462 1461 1461 1460 1460 1459 1458